Current Version              Previous Version:    01  02  03  04  05  06  07  08  09  10  11  12  13  14  15  16  17  18  19  20  21  22  23  24  25  26  27  28  29  30  
   31  32  33  34  35  36  37  38  39  40  41  42  43  44  45  46  47  48  49  50  51  52  53  54  55  56  57  58  59  60  

[Printable]
720
ASUS44 KEWX 220910
RWRTX
SOUTH TEXAS REGIONAL WEATHER ROUNDUP
NATIONAL WEATHER SERVICE AUSTIN/SAN ANTONIO TX
300 AM CST MON DEC 22 2014

NOTE: "FAIR" INDICATED FEW OR NO CLOUDS BELOW 12,000 FEET WITH NO
SIGNIFICANT WEATHER AND/OR OBSTRUCTIONS TO VISIBILITY.

* - THESE STATIONS ARE NOT NWS OR FAA STATIONS...AND ARE NOT SUBJECT
    TO NWS AND FAA QUALITY CONTROL.

TXZ171-172-183>190-221000-
TEXAS HILL COUNTRY AND EDWARDS PLATEAU

CITY           SKY/WX    TMP DP  RH WIND       PRES   REMARKS
JUNCTION       CLOUDY    54  50  86 SW9       29.76F
*LLANO         PTCLDY    45  45 100 CALM      29.77F
BURNET         CLOUDY    55  50  83 S8        29.76F
*HORSESHOE BAY CLOUDY    55  51  83 S3        29.74F
*KERRVILLE     CLOUDY    52  51  95 S6        29.79F FOG
*FREDERICKSBRG CLOUDY    53  51  94 SW10      29.78F
*ROCKSPRINGS   FOG       52  52 100 S10       29.79F VSB<1/4
*BOERNE STAGE  CLOUDY    54  52  94 SW10      29.81F VSB 1/2
*CASTROVILLE   CLOUDY    56  55  99 CALM      29.82F FOG
HONDO          CLOUDY    55  54  96 S3        29.82F FOG
*UVALDE        FOG       50  50  99 CALM      29.81S VSB 1
DEL RIO        FOG       53  52  96 SE7       29.77F VSB 1
LAUGHLIN AFB   HAZE      54  46  76 SE9       29.77F VSB 3/4
CARRIZO SPRGS  CLOUDY    54  52  94 CALM      29.78F
$$

TXZ173-191>194-202-209-217>225-228-221000-
CENTRAL AND SOUTH CENTRAL TEXAS

CITY           SKY/WX    TMP DP  RH WIND       PRES   REMARKS
GEORGETOWN     CLOUDY    57  52  82 SW10G17   29.74F
AUSTIN/BERGSTM CLOUDY    56  54  93 S15       29.77F
AUSTIN/MABRY   CLOUDY    57  54  89 S6        29.78F
*AUSTIN/EXEC   CLOUDY    55  54  94 S10       29.78F
*LAGO VISTA    CLOUDY    57  53  86 SW12G17   29.77F
SAN MARCOS     CLOUDY    55  54  94 SW10      29.80S
NEW BRAUNFELS  CLOUDY    57  55  93 SW10      29.79F FOG
RANDOLPH AFB   CLOUDY    56  55  96 S9        29.81S FOG
PT SAN ANTONIO CLOUDY    55  55 100 SW2       29.79F
SAN ANTONIO    DRIZZLE   56  55  97 S8        29.81F FOG
STINSON FIELD  CLOUDY    56  55  97 CALM      29.80F FOG
*PLEASANTON    CLOUDY    57  56  98 CALM      29.81F FOG
*LA GRANGE     CLOUDY    58  58  98 S7        29.78F FOG
*GIDDINGS      CLOUDY    56  55  95 S8        29.82F FOG
*GONZALES      NOT AVBL
$$

TXZ163>164-176>182-195>201-210>213-226-227-235-221000-
SOUTHEAST TEXAS

CITY           SKY/WX    TMP DP  RH WIND       PRES   REMARKS
COLLEGE STN    CLOUDY    56  54  93 S13       29.78F
*BRYAN         CLOUDY    56  54  94 S8        29.79F
*CALDWELL      CLOUDY    55  55 100 S12       29.80F
*CROCKETT      CLOUDY    55  55 100 S9        29.80F
*BRENHAM       CLOUDY    58  57  96 S5        29.80F FOG
HUNTSVILLE     CLOUDY    56  54  93 S10G17    29.79F
CONROE         CLOUDY    56  54  93 S10       29.81F FOG
HOUSTON BUSH   CLOUDY    56  55  97 SE6       29.81F
HOUSTON HOBBY  MOCLDY    57  56  96 SE5       29.81F FOG
*HOUSTON SW AP CLOUDY    47  47 100 CALM      29.82F FOG
PEARLAND       CLOUDY    57  55  93 MISG      29.83F FOG
HOUSTON HOOKS  CLOUDY    58  55  90 SE5       29.81F FOG
ELLINGTON FLD  MOCLDY    57  57 100 CALM      29.84F FOG
SUGAR LAND     MOCLDY    56  54  93 CALM      29.81F FOG
*HOUSTON EXEC  CLOUDY    55  55 100 SE6       29.82F FOG
*CLEVELAND MUN CLOUDY    55  55  98 S7        29.82F FOG
*WHARTON       CLOUDY    55  55  98 E5        29.82F FOG
*COLUMBUS      CLOUDY    57  56  98 S3        29.80F FOG
$$

TXZ214>216-236>238-221000-
THE UPPER TEXAS COAST

CITY           SKY/WX    TMP DP  RH WIND       PRES   REMARKS
*ORANGE        CLOUDY    54  53  97 E3        29.86F FOG
PORT ARTHUR    PTCLDY    54  52  93 E6        29.84F
GALVESTON      MOCLDY    60  60 100 SE7       29.83F
ANGLETON       CLEAR     56  56 100 CALM      29.82F
*BAY CITY        N/A     60  60 100 CALM      29.81F
PALACIOS       MOCLDY    60  59  96 E7        29.80F
$$

TXZ229>234-239>247-221000-
TEXAS COASTAL BEND AND RIO GRANDE PLAINS

CITY           SKY/WX    TMP DP  RH WIND       PRES   REMARKS
VICTORIA       FOG       58  56  93 CALM      29.80F VSB 1/4
*BEEVILLE      CLOUDY    58  58 100 CALM      29.82F FOG
ROCKPORT       CLOUDY    60  58  92 NW3       29.81S FOG
*PORT ARANSAS  FOG       59  59  99 W5        29.81S VSB 1/2
*PORT LAVACA   MOCLDY    59  58  97 CALM      29.82S FOG
*INGLESIDE     CLOUDY    56  55  95 CALM      29.81S FOG
CORPUS CHRISTI FOG       59  59 100 SW6       29.81F VSB 1/4
CORPUS NAS     CLOUDY    58  58 100 W6        29.80F FOG
*ROBSTOWN      NOT AVBL
ALICE          CLOUDY    61  59  93 S9        29.80F FOG
KINGSVILLE NAS CLOUDY    61  61 100 SW8       29.81F FOG
COTULLA        CLOUDY    59  56  89 VRB6      29.79F
LAREDO         NOT AVBL
$$

TXZ248>255-221000-
DEEP SOUTH TEXAS

CITY           SKY/WX    TMP DP  RH WIND       PRES   REMARKS
BROWNSVILLE    CLOUDY    64  61  90 S5        29.82F
PORT ISABEL    CLOUDY    62  61  96 SW5       29.82F FOG
*SOUTH PADRE   CLOUDY   N/A N/A N/A E7        29.81F
HARLINGEN      CLOUDY    64  61  90 SW3       29.81F
*HEBBRONVILLE  HVY RAIN  58  57  97 S14       29.80F
MCALLEN        CLEAR     57  56  96 CALM      29.82F FOG
*WESLACO       MOCLDY    61  57  88 SE3       29.81F FOG
FALFURRIAS     NOT AVBL
EDINBURG       PTCLDY    61  58  88 CALM      29.82F FOG
*ZAPATA        CLOUDY    58  58 100 S12       29.78F FOG
$$

TXZ213>215-236>238-242>244-246-247-251-254-255-221000-
CMAN STATIONS

STATION/POSITION TIME  TEMP    WIND        PRES    WAVE
                       AIR SEA DIR/SP/G            HT/PER
                 (UTC) (F)     (DEG/KT/KT) (MB)    (FT/S)
SABINE PASS      0900   56 60   80/  3/  5 1010.7
SEA RIM ST PARK  0900   56      80/  3/  4 1011.0
NORTH JETTY/GLS  0900   62 61  160/  8/  9   N/A
EAGLE POINT      0900   59 59  110/  3/  5 1009.9
MORGANS POINT    0900   58     110/  5/  5 1009.6
MISSION/ARANSAS  0800   61        CALM     1011.0
PORT O`CONNOR    0900          100/  3/  4   N/A
PORT ARANSAS     0900   60 63  250/  7/  8 1009.6
MALAQUITE BEACH  0900   58 64  230/  6/  8 1008.8
BAFFIN BAY       0900   59     220/  7/  8 1009.4
PORT ISABEL      0900   63 65  190/  4/  6 1009.8
$$

GMZ080-GMZ150>470-221000-
OFFSHORE BUOY REPORTS

STATION/POSITION TIME  TEMP    WIND        PRES    WAVE
                       AIR SEA DIR/SP/G            HT/PER
                 (UTC) (F)     (DEG/KT/KT) (MB)    (FT/S)
20 E GALVESTON   0900   64 64  120/  8/ 10 1009.7    2/ 4
90 E PT ARANSAS  0900   71 73  160/ 14/ 16 1009.3    3/ 6
35 NE PT MANSFLD 0900   71 73  200/ 14/ 16 1009.0    4/ 7
200 E PT ISABEL  0900   73 73  230/  8/  8 1010.4    3/ 7
$$